sat.trackr.live / text

‹ back to catalog

STARLINK-2501

NORAD 48330 · 2021-036BG

PAYLOAD ACTIVE UNKNOWN

§ Identity

Operator
Country
US
Launch date
2021-04-29
Launch site
AFETR
Launch vehicle
Mass (kg)
RCS (m²)

Purposes: comms

External: N2YO · Heavens-Above · Gunter

§ Orbital elements

Epoch: 2026-09-12T13:44:28.245696Z

Period
94.01 min
Inclination
53.1588°
Eccentricity
0.0001222
Mean motion
15.31704025 rev/d
Perigee alt
469.9 km
Apogee alt
471.6 km
Semi-major
6,848.9 km
B*
1.2672e-4
RAAN
311.7708°
Arg perigee
81.1796°
Mean anomaly
278.9343°
Rev number
29,667

§ Raw data

STARLINK-25011 48330U 21036BG  26255.57254914  .00003569  00000+0  12672-3 0  99902 48330  53.1588 311.7708 0001222  81.1796 278.9343 15.31704025296670

JSON: /api/v1/satellites/48330 · /tle

For live sub-satellite position, see the globe view (requires WebGL).

§ Visibility from observer

Set your observer location to see the next 7 days of passes ≥ 10°. The values pass through the URL so the page stays shareable.

No JS? Fill the form by hand. The geolocation button needs JavaScript.